Regional Weather Roundup
Issued by NWS

Home | Current Version | Previous Version | Graphics & Text | Print | Product List | Glossary On
Versions: 1 2 3 4 5 6 7 8 9 10 11 12 13 14 15 16 17 18 19 20 21 22 23 24 25 26 27 28 29 30 31 32 33 34 35 36 37 38 39 40 41 42 43 44 45 46 47 48 49 50
000
ASUS43 KIND 241659
RWRIN

WEATHER ROUNDUP FOR INDIANA
NATIONAL WEATHER SERVICE INDIANAPOLIS IN
100 PM EDT WED AUG 24 2016

NOTE: "FAIR" INDICATES FEW OR NO CLOUDS BELOW 12,000 FEET WITH NO
SIGNIFICANT WEATHER AND/OR OBSTRUCTIONS TO VISIBILITY.

* - STATION DOES NOT REPORT WEATHER SUCH AS PRECIPITATION OR FOG.

+ - STATION NOT QUALITY CONTROLLED BY THE NATIONAL WEATHER SERVICE.
    USE DATA WITH CAUTION...ESPECIALLY DEWPOINT AND RELATIVE
    HUMIDITY OBSERVATIONS.

INZ001>003-010>013-019-020-241800-
NORTHWEST INDIANA

CITY           SKY/WX    TMP DP  RH WIND       PRES   REMARKS
GARY /AIRPORT/ LGT RAIN  75  73  94 CALM      29.99F
KNOX *+        CLOUDY    72  55  56 S12       30.03S
MONTICELLO +   LGT RAIN  73  69  88 S8        30.03F

$$

LMZ046-743>745-241800-
SOUTHERN LAKE MICHIGAN

STATION/POSITION TIME  TEMP    WIND        PRES    WAVE
                       AIR SEA DIR/SP/G            HT
                 (UTC) (F)     (DEG/KT/KT) (MB)    (FT)
BURNS HARBOR     1606   74     190/ 13/ 21 1016.6F
MICHIGAN CITY    1600   73     150/ 12/ 15   N/A
5NW MICH CITY    1610   74 73  190/ 14/ 19   N/A     2

$$

INZ004-005-014>016-021>024-241800-
NORTH CENTRAL INDIANA

CITY           SKY/WX    TMP DP  RH WIND       PRES   REMARKS
ELKHART        LGT RAIN  75  72  88 S16       30.03F
GOSHEN         CLOUDY    78  69  73 S14       30.04F
SOUTH BEND     CLOUDY    74  71  91 S14       30.03F

$$

INZ006>009-017-018-025>027-241800-
NORTHEAST INDIANA

CITY           SKY/WX    TMP DP  RH WIND       PRES   REMARKS
ANGOLA *+      PTSUNNY   79  72  78 S13       30.06F
FORT WAYNE     PTSUNNY   79  69  71 S15G23    30.08F

$$

INZ028-029-035-036-043>045-051>053-241800-
WEST CENTRAL INDIANA

CITY           SKY/WX    TMP DP  RH WIND       PRES   REMARKS
CRAWFORDSVL +  CLOUDY    78  77  96 S8        30.07F
LAFAYETTE      CLOUDY    76  75  97 S5        30.03F FOG
TERRE HAUTE    MOSUNNY   87  73  62 S16G26    30.05F

$$

INZ030>032-037>040-046>048-054>057-064-065-241800-
CENTRAL INDIANA

CITY           SKY/WX    TMP DP  RH WIND       PRES   REMARKS
COLUMBUS       PTSUNNY   81  75  83 S14       30.12F
INDIANAPOLIS   CLOUDY    78  72  81 S13       30.08F
-EAGLE CREEK   CLOUDY    78  71  79 VRB7      30.08F
KOKOMO *+      CLOUDY    73  68  83 S9        30.07F
MT COMFORT *+  CLOUDY    73  70  88 S6        30.10F
SHELBYVILLE    CLOUDY    79  71  76 S10       30.10F

$$

INZ033-034-041-042-049-050-058-059-241800-
EAST CENTRAL INDIANA

CITY           SKY/WX    TMP DP  RH WIND       PRES   REMARKS
MUNCIE         CLOUDY    79  71  76 S9        30.10F

$$

INZ060-061-067>069-081>083-085>088-241800-
SOUTHWEST INDIANA

CITY           SKY/WX    TMP DP  RH WIND       PRES   REMARKS
EVANSVILLE     MOSUNNY   87  75  67 SW15      30.13F HX  96
HUNTINGBURG *+ MOSUNNY   86  75  70 S15       30.14F HX  95

$$

INZ062-063-066-070>080-084-089>092-241800-
SOUTH CENTRAL AND SOUTHEAST INDIANA

CITY           SKY/WX    TMP DP  RH WIND       PRES   REMARKS
BLOOMINGTON    PTSUNNY   84  73  69 SW14      30.10F
MADISON *+     PTSUNNY   84  72  65 S12       30.18F

$$





USA.gov is the U.S. government's official web portal to all federal, state and local government web resources and services.